Tracking 18850 objects as of 22-Nov-2017
HD Live streaming from Space Station
objects crossing your sky now

GORIZONT 16

Track GORIZONT 16 now!
GORIZONT 16 is classified as:


NORAD ID: 19397
Int'l Code: 1988-071A
Perigee: 35,816.1 km
Apogee: 35,931.7 km
Inclination: 14.8 °
Period: 1,440.2 minutes
Semi major axis: 42244 km
RCS: 8.2065 m2 (large)
Launch date: August 18, 1988
Source: Commonwealth of Independent States (former USSR) (CIS)
Launch site: TYURATAM MISSILE AND SPACE COMPLEX (TTMTR)
aabbcc
Your satellite tracking list
Your tracking list is empty




NASA's NSSDC Master Catalog

Two Line Element Set (TLE):
1 19397U 88071A   17321.89108505 -.00000227 +00000-0 +00000-0 0  9995
2 19397 014.8247 356.1683 0013685 342.6792 017.9324 00.99986594106917
Source of the keplerian elements: AFSPC